"Pseudo-MPEC" for CEJK452

Created 2026 Apr 16 23:35:11 UT using Find_Orb

Click here for an explanation of pseudo-MPECs

 
 Astrometry: 
     CEJK452 0C2026 04 15.42207817 17 05.043+09 41 01.94   ~4GJZ 19.59rUNEOCPI41
     CEJK452 0C2026 04 15.46447017 17 01.876+09 41 18.84   ~4GJZ 19.86gUNEOCPI41
     CEJK452 0C2026 04 15.48613517 17 00.257+09 41 27.03   ~4GJZ 18.89iUNEOCPI41
     CEJK452*1C2026 04 16.45428717 15 48.427+09 47 46.57   ~4GBo 19.65GVNEOCPG96
     CEJK452 1C2026 04 16.45952817 15 48.024+09 47 48.62   ~4GBo 19.76GVNEOCPG96
     CEJK452 1C2026 04 16.46477717 15 47.624+09 47 51.40   ~4GBo       VNEOCPG96
     CEJK452 1C2026 04 16.47001317 15 47.236+09 47 52.62   ~4GBo 19.77GVNEOCPG96

Station data:
(G96) Mt. Lemmon Survey  (N32.442729 W110.788720)  US/Arizona.  Observer E.
   J. Christensen. Measurers T. Beuden, V. F. Carvajal, D. Fay, J. B.
   Fazekas, D. C. Fuls, A. R. Gibbs, A. D. Grauer, H. Gröller, J. K. Hogan,
   R. A. Kowalski, S. M. Larson, G. J. Leonard, D. Rankin, R. L. Seaman, F.
   C. Shelly, K. W. Wierzchoś. 1.5-m reflector + 10K CCD.
(I41) Palomar Mountain--ZTF  (N33.357336 W116.859780)  US/California.
   Observers B. T. Bolin, Z. T. F. Collaboration. Measurers B. T. Bolin,
   Z.-Y. Lin, F. J. Masci. 1.2-m f/2.4 Schmidt.

Orbital elements:  CEJK452
   Perihelion 2025 Nov 18.930390 +/- 291 TT = 22:19:45.6 (JD 2460998.430390)
Epoch 2026 Apr 16.0 TT = JDT 2461146.5   Earth MOID: 0.4819   Ju: 0.7413
M   2.077535613 +/- 90              Sa: 0.7619   Ur: 0.2784      AutoNEOCP
n   0.014030803 +/-                 Peri.  352.328925 +/- 55
a  17.02476086 +/-                  Node    82.331778 +/- 27
e   0.99117031 +/- 0.167            Incl.   50.071999 +/- 43
P  70.24599                H 14.80  G  0.15   U 11.2  SR
q 0.150323285 +/- 1.13    Q 33.89919843 +/- 21.3          (J2000 ecliptic)
From 7 observations 2026 Apr. 15-16 (25.2 hr); mean residual 0".20
Residuals in arcseconds: 
260415 I41  .07-  .09+    260416 G96  .01-  .18-    260416 G96  .12+  .23-    
260415 I41  .01+  .15+    260416 G96  .06-  .16-    
260415 I41  .07+  .24-    260416 G96  .05-  .58+    

Ephemerides (geocentric):
Date (UTC) HH   RA             Dec           delta  r     elong  mag " sig PA
---- --------  ------------   ------------  ------ ------ -----  --- --------
2026 04 17 00  17 15 07.358   +09 51 18.58  2.2262 2.8930 122.6 19.7 6.21  82
2026 04 17 01  17 15 04.206   +09 51 34.53  2.2263 2.8935 122.6 19.7 6.87  83
2026 04 17 02  17 15 01.052   +09 51 50.47  2.2263 2.8941 122.7 19.7 7.56  83
2026 04 17 03  17 14 57.895   +09 52 06.39  2.2264 2.8946 122.7 19.7 8.28  84
2026 04 17 04  17 14 54.736   +09 52 22.29  2.2265 2.8952 122.7 19.7 9.03  84
2026 04 17 05  17 14 51.575   +09 52 38.18  2.2266 2.8957 122.8 19.7 9.80  85
2026 04 17 06  17 14 48.412   +09 52 54.06  2.2266 2.8963 122.8 19.7 10.6  85
2026 04 17 07  17 14 45.246   +09 53 09.92  2.2267 2.8968 122.9 19.7 11.4  85
2026 04 17 08  17 14 42.078   +09 53 25.76  2.2268 2.8974 122.9 19.7 12.3  86
2026 04 17 09  17 14 38.907   +09 53 41.59  2.2268 2.8979 122.9 19.7 13.2  86
2026 04 17 10  17 14 35.734   +09 53 57.40  2.2269 2.8985 123.0 19.7 14.1  86
2026 04 17 11  17 14 32.559   +09 54 13.19  2.2270 2.8990 123.0 19.7 15.0  86
2026 04 17 12  17 14 29.382   +09 54 28.98  2.2271 2.8996 123.1 19.7 16.0  86
2026 04 17 13  17 14 26.202   +09 54 44.74  2.2271 2.9001 123.1 19.7 17.0  87
2026 04 17 14  17 14 23.020   +09 55 00.49  2.2272 2.9007 123.2 19.7 18.0  87
2026 04 17 15  17 14 19.836   +09 55 16.22  2.2273 2.9013 123.2 19.7 19.1  87
2026 04 17 16  17 14 16.649   +09 55 31.94  2.2274 2.9018 123.2 19.7 20.1  87
2026 04 17 17  17 14 13.460   +09 55 47.64  2.2274 2.9024 123.3 19.7 21.2  87
2026 04 17 18  17 14 10.269   +09 56 03.33  2.2275 2.9029 123.3 19.7 22.4  87
2026 04 17 19  17 14 07.075   +09 56 19.00  2.2276 2.9035 123.4 19.7 23.5  87
2026 04 17 20  17 14 03.879   +09 56 34.65  2.2277 2.9040 123.4 19.7 24.7  87
2026 04 17 21  17 14 00.681   +09 56 50.29  2.2278 2.9046 123.5 19.7 25.9  87
2026 04 17 22  17 13 57.481   +09 57 05.91  2.2278 2.9051 123.5 19.7 27.2  88
2026 04 17 23  17 13 54.278   +09 57 21.52  2.2279 2.9057 123.5 19.8 28.5  88
2026 04 18 00  17 13 51.073   +09 57 37.11  2.2280 2.9062 123.6 19.8 29.8  88
2026 04 18 01  17 13 47.866   +09 57 52.69  2.2281 2.9068 123.6 19.8 31.1  88
2026 04 18 02  17 13 44.657   +09 58 08.24  2.2281 2.9073 123.7 19.8 32.5  88
2026 04 18 03  17 13 41.445   +09 58 23.79  2.2282 2.9079 123.7 19.8 33.9  88
2026 04 18 04  17 13 38.231   +09 58 39.31  2.2283 2.9084 123.7 19.8 35.3  88
2026 04 18 05  17 13 35.015   +09 58 54.82  2.2284 2.9090 123.8 19.8 36.7  88
2026 04 18 06  17 13 31.796   +09 59 10.32  2.2285 2.9095 123.8 19.8 38.2  88
2026 04 18 07  17 13 28.576   +09 59 25.80  2.2285 2.9101 123.9 19.8 39.7  88
2026 04 18 08  17 13 25.353   +09 59 41.26  2.2286 2.9106 123.9 19.8 41.2  88
2026 04 18 09  17 13 22.127   +09 59 56.70  2.2287 2.9112 124.0 19.8 42.8  88
2026 04 18 10  17 13 18.900   +10 00 12.13  2.2288 2.9117 124.0 19.8 44.4  88
2026 04 18 11  17 13 15.670   +10 00 27.55  2.2289 2.9123 124.0 19.8 46.0  88
2026 04 18 12  17 13 12.438   +10 00 42.94  2.2290 2.9129 124.1 19.8 47.6  88
2026 04 18 13  17 13 09.204   +10 00 58.33  2.2290 2.9134 124.1 19.8 49.3  88
2026 04 18 14  17 13 05.967   +10 01 13.69  2.2291 2.9140 124.2 19.8 51.0  88
2026 04 18 15  17 13 02.729   +10 01 29.04  2.2292 2.9145 124.2 19.8 52.7  88
2026 04 18 16  17 12 59.488   +10 01 44.37  2.2293 2.9151 124.2 19.8 54.5  88
2026 04 18 17  17 12 56.245   +10 01 59.68  2.2294 2.9156 124.3 19.8 56.3  88
2026 04 18 18  17 12 53.000   +10 02 14.98  2.2295 2.9162 124.3 19.8 58.1  89
2026 04 18 19  17 12 49.752   +10 02 30.27  2.2295 2.9167 124.4 19.8 60.0  89
2026 04 18 20  17 12 46.502   +10 02 45.53  2.2296 2.9173 124.4 19.8 61.8  89
2026 04 18 21  17 12 43.250   +10 03 00.78  2.2297 2.9178 124.5 19.8 63.7  89
2026 04 18 22  17 12 39.996   +10 03 16.01  2.2298 2.9184 124.5 19.8 65.7  89
2026 04 18 23  17 12 36.740   +10 03 31.23  2.2299 2.9189 124.5 19.8 67.6  89